Weather History for Rawlins, WY

Change the Weather History Date:

Tuesday, November 20, 2012

  Actual Average Record
Temperature  
Mean Temperature 42 °F 28 °F  
Max Temperature 51 °F 38 °F 62 °F (1989)
Min Temperature 32 °F 18 °F -11 °F (1957)
Degree Days  
Heating Degree Days 23 37  
Month to date heating degree days 537 650  
Since 1 July heating degree days 1405 1709  
Cooling Degree Days 0 0  
Month to date cooling degree days 0 0  
Year to date cooling degree days 419 186  
Moisture  
Dew Point 26 °F    
Average Humidity 57    
Maximum Humidity 75    
Minimum Humidity 39    
Precipitation  
Precipitation 0.00 in 0.01 in 0.66 in (1979)
Month to date precipitation 0.35 0.39  
Year to date precipitation 4.59 8.66  
Sea Level Pressure  
Sea Level Pressure 30.16 in    
Wind  
Wind Speed 13 mph (SW)    
Max Wind Speed 24 mph    
Max Gust Speed 31 mph    
Visibility 10 miles    
Events      
T = Trace of Precipitation, MM = Missing Value Source: NWS Daily Summary

Daily Weather History Graph

Daily Weather History Graph

Search for Another Location

Airport:

Trip Planner

Search our weather history database for the weather conditions in past years. The results will help you decide how hot, cold, wet, or windy it might be!

Date:

Astronomy

Nov. 20, 2012 Rise Set
Actual Time 7:04 AM MST 4:43 PM MST
Civil Twilight 6:34 AM MST 5:14 PM MST
Nautical Twilight 6:00 AM MST 5:48 PM MST
Astronomical Twilight 5:27 AM MST 6:21 PM MST
Moon 12:37 PM MST (11/20) No Moon Set
Length of Visible Light 10h 39m
Length of Day
9h 38m
First Quarter, 52% of the Moon is Illuminated
Nov 20
First Quarter
Nov 28
Full
Dec 6
Last Quarter
Dec 13
New
Dec 19
First Quarter

Hourly Weather History & Observations

Time (MST) Temp. Windchill Dew Point Humidity Pressure Visibility Wind Dir Wind Speed Gust Speed Precip Events Conditions
12:53 AM 33.1 °F 26.1 °F 26.1 °F 75% 30.20 in 10.0 mi WSW 8.1 mph - N/A   Clear
1:53 AM 37.0 °F 27.7 °F 27.0 °F 67% 30.18 in 10.0 mi WSW 16.1 mph 21.9 mph N/A   Clear
2:53 AM 37.0 °F 28.5 °F 27.0 °F 67% 30.21 in 10.0 mi WSW 13.8 mph 23.0 mph N/A   Clear
3:53 AM 36.0 °F 29.6 °F 27.0 °F 70% 30.19 in 10.0 mi SSW 8.1 mph - N/A   Clear
4:53 AM 37.0 °F 29.8 °F 26.1 °F 65% 30.22 in 10.0 mi SSW 10.4 mph - N/A   Clear
5:53 AM 36.0 °F 28.5 °F 25.0 °F 64% 30.24 in 10.0 mi SSW 10.4 mph - N/A   Clear
6:53 AM 35.1 °F 25.9 °F 25.0 °F 67% 30.27 in 10.0 mi SSW 13.8 mph 19.6 mph N/A   Clear
7:53 AM 37.0 °F 31.0 °F 26.1 °F 65% 30.28 in 10.0 mi SW 8.1 mph - N/A   Clear
8:53 AM 43.0 °F 37.7 °F 27.0 °F 53% 30.24 in 10.0 mi SW 9.2 mph - N/A   Clear
9:53 AM 46.0 °F 38.5 °F 27.0 °F 47% 30.22 in 10.0 mi SW 19.6 mph 26.5 mph N/A   Clear
10:53 AM 48.0 °F - 26.1 °F 42% 30.20 in 10.0 mi SW 24.2 mph 29.9 mph N/A   Clear
11:53 AM 50.0 °F - 27.0 °F 41% 30.18 in 10.0 mi SW 19.6 mph 28.8 mph N/A   Clear
12:53 PM 48.9 °F - 27.0 °F 43% 30.17 in 10.0 mi WSW 18.4 mph 28.8 mph N/A   Clear
1:53 PM 48.9 °F - 27.0 °F 43% 30.13 in 10.0 mi SW 17.3 mph - N/A   Clear
2:53 PM 50.0 °F - 26.1 °F 39% 30.09 in 10.0 mi SW 17.3 mph 26.5 mph N/A   Clear
3:53 PM 48.9 °F - 26.1 °F 41% 30.11 in 10.0 mi SSW 18.4 mph - N/A   Clear
4:53 PM 45.0 °F 38.2 °F 26.1 °F 48% 30.12 in 10.0 mi SSW 15.0 mph - N/A   Clear
5:53 PM 44.1 °F 38.1 °F 27.0 °F 51% 30.12 in 10.0 mi SW 11.5 mph - N/A   Clear
6:53 PM 39.9 °F 35.8 °F 27.0 °F 60% 30.14 in 10.0 mi SW 5.8 mph - N/A   Clear
7:53 PM 44.1 °F 39.0 °F 27.0 °F 51% 30.10 in 10.0 mi South 9.2 mph - N/A   Clear
8:53 PM 44.1 °F 40.1 °F 26.1 °F 49% 30.06 in 10.0 mi West 6.9 mph - N/A   Clear
9:53 PM 43.0 °F 36.4 °F 24.1 °F 47% 30.04 in 10.0 mi WSW 12.7 mph - N/A   Clear
10:53 PM 44.1 °F 36.5 °F 21.0 °F 40% 30.02 in 10.0 mi WSW 17.3 mph 27.6 mph N/A   Clear
11:53 PM 41.0 °F 34.7 °F 21.9 °F 47% 30.01 in 10.0 mi WSW 10.4 mph 17.3 mph N/A   Clear